Regional Weather Roundup
Issued by NWS Northern Indiana

Home | Current Version | Previous Version | Graphics & Text | Print | Product List | Glossary On
Versions: 1 2 3 4 5 6 7 8 9 10 11 12 13 14 15 16 17 18 19 20 21 22 23 24 25 26 27 28 29 30 31 32 33 34 35 36 37 38 39 40 41 42 43 44 45 46 47 48 49 50
000
ASUS43 KIWX 260310
RWRIWX

KIWX WEATHER ROUNDUP
NATIONAL WEATHER SERVICE NORTHERN INDIANA
1100 PM EDT MON MAY 25 2015

NOTE: "FAIR" INDICATES FEW OR NO CLOUDS BELOW 12,000 FEET WITH NO
SIGNIFICANT WEATHER AND/OR OBSTRUCTIONS TO VISIBILITY.

* THESE STATIONS ARE NOT UNDER NWS QUALITY CONTROL. THEY ALSO MAY NOT
  REPORT WEATHER SUCH AS PRECIPITATION OR FOG.

INZ001>027-260400-
NORTHERN INDIANA

CITY           SKY/WX    TMP DP  RH WIND       PRES   REMARKS
GARY*          PTCLDY    77  59  53 S9        29.96R
VALPARAISO     PTCLDY    73  62  68 S12       29.98R
MICHIGAN CITY* PTCLDY    72  57  60 S12       29.97R
LAPORTE*       MOCLDY    74  63  66 S8        29.99R
KNOX*          MOCLDY    72  59  64 S12       29.99R
SOUTH BEND     CLOUDY    73  61  65 S10       29.99R
GOSHEN         CLOUDY    72  62  71 S13       30.00R
MONTICELLO*    CLOUDY    71  64  80 S7        30.02R
LOGANSPORT*    CLOUDY    70  61  73 S9        30.04R
ROCHESTER*     CLOUDY    73  63  68 S7        30.03R
WARSAW*        CLOUDY    72  63  73 SW5       30.01R
ANGOLA*        CLEAR     72  63  73 S7        30.02R
FORT WAYNE     MOCLDY    71  63  75 S15       30.04R
HUNTINGTON*    CLOUDY    71  63  75 S7        30.03S
PERU/GRISSOM   CLOUDY    70  65  84 S10       30.03R
MARION*        CLOUDY    70  61  74 S13       30.06R

$$
INZ028>050-260400-
CENTRAL INDIANA

CITY           SKY/WX    TMP DP  RH WIND       PRES   REMARKS
LAFAYETTE      CLOUDY    69  64  84 S8        30.02R
KOKOMO*        CLOUDY    70  63  78 S10       30.05R
MUNCIE*        MOCLDY    70  63  78 S8        30.07R
INDIANAPOLIS   CLOUDY    69  63  81 S8        30.06R

$$
MIZ043>046-050>051-056>058-064>065-071>073-077>080-260400-
SOUTHWEST LOWER MICHIGAN

CITY           SKY/WX    TMP DP  RH WIND       PRES   REMARKS
BATTLE CREEK   CLOUDY    67  60  78 S7        29.99R
BENTON HARBOR  MOCLDY    64  58  80 CALM      29.96R
COLDWATER*     MOCLDY    70  60  71 S3        30.01R
HILLSDALE*     MOCLDY    72  61  69 S6        30.02R
HOLLAND        MOCLDY    66  58  75 S6        29.96R
GRAND RAPIDS   CLOUDY    66  59  78 S8        29.97R
KALAMAZOO      CLOUDY    68  60  75 S3        29.99R
STURGIS*       CLOUDY    70  61  73 S8        30.00R
THREE RIVERS*  FAIR      69  60  73 S7        29.99R

$$
OHZ001>008-015>018-024>025-260400-
NORTHWEST OHIO

CITY           SKY/WX    TMP DP  RH WIND       PRES   REMARKS
WAUSEON*       FAIR      72  63  73 SW9       30.03R
DEFIANCE       MOCLDY    73  62  68 S10       30.03R
FINDLAY        MOCLDY    72  62  71 S14       30.06R
TOLEDO EXPRESS CLEAR     73  61  65 S9        30.03R
TOLEDO METCALF PTCLDY    73  60  63 S16       30.04R
LIMA           PTCLDY    70  62  76 S12       30.08R

$$
AND FOR LAKE MICHIGAN COASTAL AND OPEN LAKE BUOY OBSERVATIONS

STATION/POSITION TEMP    WIND        PRES    VSBY  WAVE
                 AIR SEA DIR/SP/G                  HT/PER
                 (F)     (DEG/KT/KT) (MB)    (MI)  (FT/S)
CALUMET HARBOR    73     180/  3/  3   N/A
MICHIGAN CITY     75     160/ 10/ 14   N/A
BURNS HARBOR      75     190/ 12/ 14 1014.9R
SAINT JOSEPH      72     120/  3/  8 1015.2R
SOUTH LAKE BUOY   49 38  200/ 12/ 12 1013.9R         1/ 3
4 MI NW BRIDGMAN  65 55  200/ 10/ 10   N/A           1/ 3
MICHIGAN CITY     63 52  200/  6/  8   N/A           1

$$
&&



USA.gov is the U.S. government's official web portal to all federal, state and local government web resources and services.